Regional Weather Roundup
Issued by NWS

Home | Current Version | Previous Version | Graphics & Text | Print | Product List | Glossary On
Versions: 1 2 3 4 5 6 7 8 9 10 11 12 13 14 15 16 17 18 19 20 21 22 23 24 25 26 27 28 29 30 31 32 33 34 35 36 37 38 39 40 41 42 43 44 45 46 47 48 49 50
000
ASUS43 KMPX 071501
RWRMN
WEATHER ROUNDUP FOR MINNESOTA
NATIONAL WEATHER SERVICE TWIN CITIES/CHANHASSEN MN
900 AM CST WED DEC 07 2016


NOTE: "FAIR" INDICATES FEW OR NO CLOUDS BELOW 12,000 FEET WITH NO
SIGNIFICANT WEATHER AND/OR OBSTRUCTIONS TO VISIBILITY. N/A MEANS
CURRENT SKY AND/OR WEATHER CONDITIONS ARE NOT AVAILABLE.

MNZ060>063-068>070-071600-
   Twin Cities Metro

CITY           SKY/WX    TMP DP  RH WIND       PRES   REMARKS
CRYSTAL        FLURRIES  18   8  65 W15G26    29.98R WCI   4
BLAINE         FLURRIES  19  10  68 W17G25    29.97R WCI   4
$$
MNZ001>005-007-008-013>017-022>024-027-028-071600-
   Northwest Minnesota

CITY           SKY/WX    TMP DP  RH WIND       PRES   REMARKS
THIEF RVR FALL LGT SNOW  14  10  85 W20       29.85R VSB 1   WCI  -3
$$
MNZ006-009>011-018-025>026-071600-
   North Central Minnesota

CITY           SKY/WX    TMP DP  RH WIND       PRES   REMARKS
BAUDETTE       LGT SNOW  21  18  88 W16G26    29.67R FOG     WCI   7
INTL FALLS     SNOW      22  19  89 W9        29.63R VSB 1/4 WCI  12
WASKISH        CLOUDY    19  18  93 W20G28    29.72R WCI   4
LONGVILLE      FLURRIES  14   9  79 W13G20    29.80R WCI   0
CRANE LAKE     FLURRIES  21  19  93 W6        29.64R WCI  14
COOK           LGT SNOW  18  16  93 W10       29.65R VSB 3/4 WCI   6
$$
MNZ012-019>021-037-071600-
   Northeast Minnesota

CITY           SKY/WX    TMP DP  RH WIND       PRES   REMARKS
HIBBING        LGT SNOW  16  12  84 W9G18     29.70R FOG     WCI   4
GRAND MARAIS     N/A     26  23  88 W13G25    29.64R WCI  15
$$
MNZ029>031-032-039>041-046>048-054>057-064-071600-
   West Central Minnesota

CITY           SKY/WX    TMP DP  RH WIND       PRES   REMARKS
WHEATON        CLOUDY    14   7  73 W22G30    30.08R WCI  -4
ALEXANDRIA     LGT SNOW  11   7  84 W26G32    29.96S VSB 1   WCI -10
ELBOW LAKE     LGT SNOW  10   6  84 NW21G28   30.01R WCI  -9
APPLETON       CLEAR     14   7  73 W25G32    30.07R WCI  -5
WILLMAR        FLURRIES  16  10  79 W23       30.04R WCI  -2
$$
MNZ033>034-036-042>043-049>051-058-059-071600-
   Central Minnesota

CITY           SKY/WX    TMP DP  RH WIND       PRES   REMARKS
$$
MNZ037-044-045-052-053-071600-
   East Central Minnesota

CITY           SKY/WX    TMP DP  RH WIND       PRES   REMARKS
MORA           PTCLDY    14   9  79 W13G22    29.91R WCI   0
CAMBRIDGE      FLURRIES  18   9  68 SW14      29.92R WCI   4
RUSH CITY      CLOUDY    16  10  79 W12G25    29.92R WCI   3
CLOQUET        FLURRIES  16   9  73 SW16      29.76R WCI   0
$$
MNZ071>073-080-081-089-090-097-098-071600-
   Southwest Minnesota

CITY           SKY/WX    TMP DP  RH WIND       PRES   REMARKS
JACKSON        SUNNY      9   3  78 W22G31    30.12R WCI -11
SLAYTON        CLEAR      8   3  81 W24G32    30.11R WCI -13
$$
MNZ065>067-074>077-082>085-091>093-071600-
   South Central Minnesota

CITY           SKY/WX    TMP DP  RH WIND       PRES   REMARKS
MANKATO        PTSUNNY   14   7  73 W21       30.09R WCI  -4
ST JAMES       CLOUDY    12   7  79 W18G25    30.12R WCI  -5
GLENCOE        CLOUDY    16  11  81 W14G25    30.04R WCI   2
OWATONNA       FLURRIES  14   7  73 W21       30.06R WCI  -4
$$
MNZ078>079-086>088-094>096-071600-
   Southeast Minnesota

CITY           SKY/WX    TMP DP  RH WIND       PRES   REMARKS
ROCHESTER      LGT SNOW  13   8  81 W18       30.03R WCI  -4
RED WING       FLURRIES  18   9  68 W20       30.01R WCI   1
AUSTIN         CLOUDY    12   7  79 W16G23    30.07R WCI  -4
$$
ABBREVIATIONS USED IN REMARKS
   TC - TEMPERATURES IN CELSIUS
  WCI - WIND CHILL INDEX
   HX - HEAT INDEX
  VSB - VISIBILITY
$$




USA.gov is the U.S. government's official web portal to all federal, state and local government web resources and services.